Location: D�rnast
(49.6426°N, 11.9755°E)
Time: 01:57:58
(UTC+00:00)

BlueWalker 3 - Pass Details

Date: 01 December 2022
Orbit: 499 x 517 km, 53.2° (Epoch: 26 January)

Event Time Altitude Azimuth Distance (km) Brightness Sun altitude
Rises 17:47:02 0° 282° (WNW) 2,630 6.8 -23.8°
Reaches altitude 10° 17:49:18 10° 288° (WNW) 1,739 5.5 -24.1°
Enters shadow 17:52:16 41° 323° (NW) 755 3.0 -24.6°
